Погода в Молвине

Россия / Республика Татарстан     55°36′51″N   48°23′23″E
темп.,
°C
ветер,
м/с
пор.,
м/с
влажн.,
%
обл.,
%
осадки,
мм/ч
давл.,
гПа
погр.,
м
27 февраля, сб
сб2700:00−10ююв81494100 4.0 998480
03:00−8юв4795100 5.2 997202
06:00−7в2297100 1.2 99567
09:00−7ссв2396100 1.8 996127
12:00−7ссв469396 0.4 997345
15:00−9с689398 0.6 999501
18:00−11с61192100 0.2 1001517
21:00−13с61192100 0.3 1003444
28 февраля, вс
вс2800:00−15ссз61094100 0.1 1005329
03:00−18ссз51097100 0.1 1007252
06:00−20ссз5109689 0.0 1008241
09:00−19ссз5109585 0.0 1009277
12:00−15ссз589281 0.0 1011394
15:00−13ссз599190 0.0 1012508
18:00−17ссз469599 0.0 1014123
21:00−20ссз339858 0.0 101735
1 марта, пн
пн100:00−22ссз33970 0.0 101828
03:00−23ссз23982 0.0 102021
06:00−24ссз239912 0.0 102120
09:00−21ссз23978 0.0 1023110
12:00−17сз229018 0.0 1022216
15:00−15зсз239243 0.0 1022238
18:00−19зюз12960 0.0 102120
21:00−18ююз339714 0.0 102026
2 марта, вт
вт200:00−18ююз359847 0.0 101889
03:00−15ююз5109674 0.0 1014209
06:00−13ююз61195100 0.1 1010301
09:00−8ююз71195100 1.3 1007455
12:00−3ююз61096100 1.0 1004554
15:00−1ююз5897100 2.1 1001499
18:00−1юз4798100 1.1 1000301
21:00−2з2298100 1.8 100022
3 марта, ср
ср300:00−1ссз41098100 1.1 1000493
03:00−4сз51095100 1.7 1001287
06:00−9сз3896100 0.0 1001143
09:00−7сз499699 0.1 1003339
12:00−4сз5993100 0.1 1004470
15:00−3сз5991100 0.1 1005733
18:00−4сз41192100 0.1 1005551
21:00−6сз4119592 0.1 1007353